CGPEZ CYXU-CYKF

Flight info

Callsign CGPEZ
Flight time 0h 18m
Altitude 11000
Route TETOS
Aircraft TBM9/L-SDFGRWY/S

Departure

Time 2026-05-06 23:32
Airport London International Airport (CYXU)

Arrival

Time 2026-05-06 23:50
Airport Region of Waterloo International Airport (CYKF)
Time Latitude Longitude Altitude Speed Heading
2026-05-06 23:10 43.03561 -81.16313 906 ft 0 kts 264°
2026-05-06 23:17 43.03550 -81.16310 906 ft 9 kts 97°
2026-05-06 23:18 43.03550 -81.16303 906 ft 0 kts 88°
2026-05-06 23:21 43.03550 -81.16302 906 ft 0 kts 88°
2026-05-06 23:23 43.03578 -81.16245 905 ft 15 kts 48°
2026-05-06 23:24 43.03651 -81.16120 903 ft 19 kts 82°
2026-05-06 23:24 43.03681 -81.15940 902 ft 21 kts 80°
2026-05-06 23:24 43.03708 -81.15720 898 ft 24 kts 93°
2026-05-06 23:24 43.03599 -81.15567 899 ft 24 kts 137°
2026-05-06 23:25 43.03470 -81.15412 902 ft 25 kts 137°
2026-05-06 23:25 43.03338 -81.15249 901 ft 27 kts 137°
2026-05-06 23:25 43.03190 -81.15076 898 ft 30 kts 138°
2026-05-06 23:25 43.03032 -81.14880 896 ft 32 kts 140°
2026-05-06 23:26 43.02870 -81.14693 897 ft 29 kts 139°
2026-05-06 23:26 43.02718 -81.14507 899 ft 29 kts 138°
2026-05-06 23:26 43.02561 -81.14318 897 ft 31 kts 137°
2026-05-06 23:26 43.02391 -81.14119 894 ft 33 kts 138°
2026-05-06 23:27 43.02329 -81.13949 893 ft 16 kts 53°
2026-05-06 23:27 43.02347 -81.13917 893 ft 0 kts 54°
2026-05-06 23:30 43.02354 -81.13904 892 ft 8 kts 53°
2026-05-06 23:30 43.02395 -81.13843 893 ft 6 kts 43°
2026-05-06 23:30 43.02405 -81.13834 893 ft 1 kts 15°
2026-05-06 23:31 43.02439 -81.13858 894 ft 6 kts 320°
2026-05-06 23:31 43.02515 -81.13954 893 ft 36 kts 316°
2026-05-06 23:31 43.02844 -81.14339 902 ft 87 kts 319°
2026-05-06 23:31 43.03409 -81.15007 964 ft 122 kts 319°
2026-05-06 23:32 43.04154 -81.15784 1109 ft 144 kts 321°
2026-05-06 23:32 43.04981 -81.16701 1339 ft 161 kts 320°
2026-05-06 23:32 43.05891 -81.17685 1578 ft 170 kts 321°
2026-05-06 23:32 43.06812 -81.18745 1839 ft 176 kts 321°
2026-05-06 23:33 43.07737 -81.19865 2084 ft 179 kts 319°
2026-05-06 23:33 43.08681 -81.21020 2330 ft 184 kts 320°
2026-05-06 23:33 43.09641 -81.22186 2570 ft 185 kts 319°
2026-05-06 23:33 43.10608 -81.23352 2814 ft 185 kts 320°
2026-05-06 23:34 43.11582 -81.24510 3047 ft 185 kts 320°
2026-05-06 23:34 43.12560 -81.25646 3286 ft 184 kts 323°
2026-05-06 23:34 43.13762 -81.26157 3545 ft 187 kts
2026-05-06 23:34 43.15001 -81.25566 3795 ft 194 kts 31°
2026-05-06 23:35 43.15879 -81.24115 4047 ft 209 kts 59°
2026-05-06 23:35 43.16497 -81.22244 4351 ft 219 kts 62°
2026-05-06 23:35 43.17133 -81.20364 4879 ft 217 kts 60°
2026-05-06 23:35 43.17796 -81.18512 5395 ft 216 kts 59°
2026-05-06 23:36 43.18450 -81.16683 5903 ft 217 kts 59°
2026-05-06 23:36 43.19116 -81.14821 6432 ft 218 kts 59°
2026-05-06 23:36 43.19786 -81.12942 6930 ft 220 kts 59°
2026-05-06 23:36 43.20464 -81.11052 7429 ft 222 kts 60°
2026-05-06 23:37 43.21142 -81.09149 7948 ft 223 kts 60°
2026-05-06 23:37 43.21820 -81.07234 8466 ft 224 kts 61°
2026-05-06 23:37 43.22498 -81.05305 8995 ft 225 kts 61°
2026-05-06 23:37 43.23182 -81.03369 9529 ft 226 kts 61°
2026-05-06 23:38 43.23873 -81.01428 10020 ft 229 kts 61°
2026-05-06 23:38 43.24604 -80.99371 10080 ft 250 kts 62°
2026-05-06 23:38 43.25379 -80.97144 10090 ft 266 kts 63°
2026-05-06 23:38 43.26175 -80.94796 10090 ft 276 kts 64°
2026-05-06 23:39 43.26978 -80.92365 10092 ft 282 kts 64°
2026-05-06 23:39 43.27792 -80.89889 10087 ft 286 kts 64°
2026-05-06 23:39 43.28614 -80.87392 10089 ft 288 kts 64°
2026-05-06 23:39 43.29444 -80.84876 10088 ft 290 kts 64°
2026-05-06 23:40 43.30279 -80.82354 10087 ft 290 kts 64°
2026-05-06 23:40 43.31118 -80.79829 10086 ft 291 kts 64°
2026-05-06 23:40 43.31957 -80.77300 10085 ft 291 kts 64°
2026-05-06 23:40 43.32794 -80.74768 10082 ft 291 kts 64°
2026-05-06 23:41 43.33637 -80.72227 10000 ft 294 kts 64°
2026-05-06 23:41 43.34480 -80.69671 9980 ft 293 kts 64°
2026-05-06 23:41 43.35324 -80.67129 9976 ft 292 kts 64°
2026-05-06 23:41 43.36168 -80.64590 9976 ft 291 kts 64°
2026-05-06 23:42 43.37000 -80.62087 9963 ft 273 kts 64°
2026-05-06 23:42 43.37697 -80.59890 9939 ft 229 kts 66°
2026-05-06 23:42 43.38198 -80.58030 9953 ft 191 kts 82°
2026-05-06 23:42 43.37953 -80.56416 9898 ft 168 kts 130°
2026-05-06 23:43 43.37052 -80.55533 9370 ft 157 kts 180°
2026-05-06 23:43 43.35992 -80.55634 8852 ft 154 kts 201°
2026-05-06 23:43 43.34916 -80.55902 8338 ft 160 kts 201°
2026-05-06 23:43 43.33855 -80.56303 7842 ft 153 kts 222°
2026-05-06 23:44 43.33332 -80.57420 7376 ft 138 kts 269°
2026-05-06 23:44 43.33428 -80.58725 6892 ft 139 kts 282°
2026-05-06 23:44 43.33773 -80.59946 6424 ft 142 kts 312°
2026-05-06 23:44 43.34714 -80.60414 5943 ft 153 kts 350°
2026-05-06 23:45 43.35787 -80.60443 5428 ft 154 kts 352°
2026-05-06 23:45 43.36868 -80.60490 4915 ft 156 kts 351°
2026-05-06 23:45 43.37954 -80.60314 4405 ft 164 kts 16°
2026-05-06 23:45 43.38963 -80.59555 3890 ft 169 kts 36°
2026-05-06 23:46 43.39630 -80.58207 3385 ft 175 kts 63°
2026-05-06 23:46 43.40060 -80.56642 2909 ft 173 kts 66°
2026-05-06 23:46 43.40457 -80.55166 2668 ft 155 kts 64°
2026-05-06 23:46 43.40821 -80.53852 2416 ft 140 kts 65°
2026-05-06 23:47 43.41158 -80.52607 2160 ft 137 kts 64°
2026-05-06 23:47 43.41470 -80.51366 1896 ft 137 kts 65°
2026-05-06 23:47 43.41768 -80.50123 1707 ft 142 kts 66°
2026-05-06 23:47 43.42134 -80.48772 1724 ft 157 kts 63°
2026-05-06 23:48 43.42571 -80.47358 1748 ft 161 kts 59°
2026-05-06 23:48 43.43041 -80.46143 1795 ft 130 kts 55°
2026-05-06 23:48 43.43486 -80.45111 1614 ft 119 kts 50°
2026-05-06 23:48 43.43936 -80.44131 1554 ft 122 kts 49°
2026-05-06 23:49 43.44409 -80.43133 1600 ft 128 kts 60°
2026-05-06 23:49 43.44746 -80.41971 1652 ft 125 kts 57°
2026-05-06 23:49 43.45056 -80.41041 1630 ft 92 kts 56°
2026-05-06 23:49 43.45341 -80.40227 1350 ft 98 kts 52°
2026-05-06 23:50 43.45664 -80.39381 1160 ft 98 kts 55°
2026-05-06 23:50 43.46118 -80.38065 1035 ft 54 kts 60°
2026-05-06 23:50 43.46195 -80.37723 1038 ft 20 kts 124°
2026-05-06 23:51 43.46129 -80.37686 1037 ft 0 kts 199°
2026-05-06 23:51 43.46099 -80.37702 1037 ft 16 kts 205°
2026-05-06 23:51 43.46003 -80.37875 1036 ft 27 kts 245°
2026-05-06 23:52 43.45919 -80.38117 1036 ft 29 kts 245°
2026-05-06 23:52 43.45832 -80.38374 1035 ft 31 kts 246°
2026-05-06 23:52 43.45733 -80.38603 1036 ft 22 kts 204°
2026-05-06 23:52 43.45669 -80.38711 1036 ft 0 kts 245°
2026-05-06 23:55 43.46011 -80.39734 1037 ft 0 kts 102°